Location: Unspecified
(0.0000°N, 0.0000°E)
Time: 17:51:13
(UTC+00:00)

STARLINK 1033 - Pass Details

Date: 17 January 2020
Orbit: 438 x 440 km, 53.0° (Epoch: 17 January)

Event Time Altitude Azimuth Distance (km) Brightness Sun altitude
Rises 05:37:20 0° 216° (SW) 2,415 6.7 -7.6°
Reaches altitude 10° 05:39:28 10° 218° (SW) 1,544 5.7 -7.1°
Maximum altitude 05:42:55 76° 304° (NW) 452 3.1 -6.3°
Drops below altitude 10° 05:46:22 10° 30° (NNE) 1,536 6.0 -5.5°
Sets 05:48:28 0° 32° (NNE) 2,401 7.0 -5.0°
